TimeEST,TemperatureF,Dew PointF,Humidity,Sea Level PressureIn,VisibilityMPH,Wind Direction,Wind SpeedMPH,Gust SpeedMPH,PrecipitationIn,Events,Conditions,WindDirDegrees,DateUTC
12:53 AM,75.9,73.0,91,30.00,10.0,NNE,4.6,-,N/A,,Clear,20,2013-11-24 05:53:00
1:53 AM,75.9,73.9,94,30.00,10.0,North,6.9,-,N/A,,Scattered Clouds,10,2013-11-24 06:53:00
2:20 AM,75.9,73.9,94,29.99,10.0,NNE,6.9,-,N/A,,Scattered Clouds,20,2013-11-24 07:20:00
2:53 AM,75.9,73.0,91,29.98,10.0,NNE,6.9,-,N/A,,Partly Cloudy,30,2013-11-24 07:53:00
3:53 AM,75.9,73.0,91,29.98,10.0,NNE,8.1,-,N/A,,Scattered Clouds,30,2013-11-24 08:53:00
4:06 AM,75.9,73.0,91,29.98,10.0,NE,8.1,-,N/A,,Mostly Cloudy,40,2013-11-24 09:06:00
4:14 AM,75.9,73.0,91,29.98,10.0,NE,8.1,-,N/A,,Scattered Clouds,40,2013-11-24 09:14:00
4:53 AM,75.9,73.0,91,29.99,10.0,NNE,8.1,-,N/A,,Scattered Clouds,30,2013-11-24 09:53:00
5:53 AM,75.0,73.0,94,30.00,10.0,NE,8.1,-,N/A,,Scattered Clouds,40,2013-11-24 10:53:00
6:38 AM,75.9,73.0,91,30.02,10.0,NE,5.8,-,N/A,,Mostly Cloudy,50,2013-11-24 11:38:00
6:45 AM,75.9,72.0,87,30.02,10.0,NE,6.9,-,N/A,,Mostly Cloudy,50,2013-11-24 11:45:00
6:53 AM,75.9,72.0,87,30.03,10.0,NE,9.2,-,N/A,,Mostly Cloudy,50,2013-11-24 11:53:00
7:53 AM,77.0,72.0,84,30.04,10.0,ENE,10.4,-,N/A,,Clear,60,2013-11-24 12:53:00
8:53 AM,77.0,71.1,82,30.06,10.0,NE,10.4,-,N/A,,Partly Cloudy,50,2013-11-24 13:53:00
9:53 AM,80.1,72.0,76,30.07,10.0,NE,11.5,-,N/A,,Clear,50,2013-11-24 14:53:00
10:53 AM,81.0,71.1,72,30.06,10.0,NE,11.5,-,N/A,,Clear,50,2013-11-24 15:53:00
11:53 AM,81.0,69.1,67,30.06,10.0,NE,12.7,21.9,N/A,,Clear,40,2013-11-24 16:53:00
12:53 PM,81.0,69.1,67,30.04,10.0,NNE,11.5,-,N/A,,Clear,30,2013-11-24 17:53:00
1:53 PM,81.0,69.1,67,30.02,10.0,NE,10.4,-,N/A,,Clear,40,2013-11-24 18:53:00
2:53 PM,81.0,70.0,69,30.02,10.0,NNE,12.7,-,N/A,,Clear,20,2013-11-24 19:53:00
3:53 PM,81.0,69.1,67,30.03,10.0,NNE,13.8,-,N/A,,Clear,20,2013-11-24 20:53:00
4:53 PM,80.1,68.0,67,30.04,10.0,NNE,8.1,-,N/A,,Clear,30,2013-11-24 21:53:00
5:53 PM,79.0,68.0,69,30.05,10.0,NE,9.2,-,N/A,,Scattered Clouds,50,2013-11-24 22:53:00
6:53 PM,78.1,68.0,71,30.06,10.0,ENE,9.2,-,N/A,,Partly Cloudy,70,2013-11-24 23:53:00
7:53 PM,77.0,68.0,74,30.08,10.0,East,9.2,-,N/A,,Partly Cloudy,80,2013-11-25 00:53:00
8:53 PM,75.0,68.0,79,30.10,10.0,NE,13.8,21.9,0.06,,Overcast,50,2013-11-25 01:53:00
9:53 PM,75.0,66.9,76,30.10,10.0,NE,18.4,26.5,N/A,,Partly Cloudy,40,2013-11-25 02:53:00
10:53 PM,75.0,68.0,79,30.10,10.0,ENE,11.5,27.6,N/A,,Partly Cloudy,60,2013-11-25 03:53:00
11:53 PM,73.9,68.0,82,30.09,10.0,ENE,13.8,23.0,N/A,,Clear,70,2013-11-25 04:53:00